| time (UTC) | temp F | wind direction | speed MPH | gust MPH | rain 1hr in | rain 24hr in | rain mn in | humidity % | barometer mb |
| 20260905062720 | 70 | 341 | 0.0 | 0.0 | 0.00 | 0.00 | 0.00 | 99 | 1014.3 |
| 20260905062219 | 70 | 342 | 0.0 | 0.0 | 0.00 | 0.00 | 0.00 | 99 | 1014.5 |
| 20260905061713 | 71 | 342 | 0.0 | 0.0 | 0.00 | 0.00 | 0.00 | 99 | 1014.6 |
| 20260905061208 | 71 | 341 | 0.0 | 0.0 | 0.00 | 0.00 | 0.00 | 99 | 1014.6 |
| 20260905060703 | 71 | 342 | 0.0 | 0.0 | 0.00 | 0.00 | 0.00 | 99 | 1014.8 |
| 20260905060200 | 71 | 344 | 0.0 | 0.0 | 0.00 | 0.00 | 0.00 | 99 | 1014.6 |
| 20260905055658 | 71 | 344 | 0.0 | 0.0 | 0.00 | 0.00 | 0.00 | 99 | 1014.9 |
| 20260905055153 | 71 | 344 | 0.0 | 0.0 | 0.00 | 0.00 | 0.00 | 99 | 1015.1 |
| 20260905054649 | 71 | 344 | 0.0 | 0.0 | 0.00 | 0.00 | 0.00 | 99 | 1014.8 |
| 20260905054144 | 71 | 345 | 0.0 | 0.0 | 0.00 | 0.00 | 0.00 | 99 | 1015.0 |
| 20260905053638 | 71 | 348 | 0.0 | 0.0 | 0.00 | 0.00 | 0.00 | 99 | 1015.1 |
| 20260905053134 | 71 | 344 | 0.0 | 0.0 | 0.00 | 0.00 | 0.00 | 99 | 1015.3 |
| 20260905052632 | 71 | 340 | 0.0 | 0.0 | 0.00 | 0.00 | 0.00 | 99 | 1015.3 |
| 20260905052127 | 71 | 341 | 0.0 | 0.0 | 0.00 | 0.00 | 0.00 | 99 | 1015.4 |
| 20260905051623 | 71 | 342 | 0.0 | 0.0 | 0.00 | 0.00 | 0.00 | 99 | 1015.3 |
| 20260905051120 | 71 | 343 | 0.0 | 0.0 | 0.00 | 0.00 | 0.00 | 99 | 1015.5 |
| 20260905050615 | 71 | 343 | 0.0 | 0.0 | 0.00 | 0.00 | 0.00 | 99 | 1015.5 |
| 20260905050112 | 71 | 342 | 0.0 | 0.0 | 0.00 | 0.00 | 0.00 | 99 | 1015.6 |
| 20260905045607 | 71 | 342 | 0.0 | 0.0 | 0.00 | 0.00 | 0.00 | 99 | 1015.6 |
| 20260905045102 | 71 | 338 | 0.0 | 0.0 | 0.00 | 0.00 | 0.00 | 99 | 1015.7 |
| 20260905044601 | 71 | 341 | 0.0 | 0.0 | 0.00 | 0.00 | 0.00 | 99 | 1015.6 |
| 20260905044057 | 71 | 342 | 0.0 | 0.0 | 0.00 | 0.00 | 0.00 | 99 | 1015.6 |
| 20260905043555 | 71 | 342 | 0.0 | 0.0 | 0.00 | 0.00 | 0.00 | 99 | 1015.6 |
| 20260905043051 | 71 | 341 | 0.0 | 0.0 | 0.00 | 0.00 | 0.00 | 99 | 1015.6 |
| 20260905042549 | 71 | 341 | 0.0 | 0.0 | 0.00 | 0.00 | 0.00 | 98 | 1015.7 |
| 20260905042045 | 71 | 339 | 0.0 | 0.0 | 0.00 | 0.00 | 0.00 | 98 | 1015.6 |
| 20260905041540 | 71 | 341 | 0.0 | 0.0 | 0.00 | 0.00 | 0.00 | 98 | 1015.6 |
| 20260905041036 | 72 | 341 | 0.0 | 0.0 | 0.00 | 0.00 | 0.00 | 98 | 1015.7 |
| 20260905040536 | 71 | 341 | 0.0 | 0.0 | 0.00 | 0.00 | 0.00 | 98 | 1015.8 |
| 20260905040034 | 72 | 341 | 0.0 | 0.0 | 0.00 | 0.00 | 0.00 | 98 | 1015.8 |
| 20260905035529 | 72 | 341 | 0.0 | 0.0 | 0.00 | 0.00 | 0.00 | 98 | 1015.7 |
| 20260905035026 | 72 | 341 | 0.0 | 0.0 | 0.00 | 0.00 | 0.00 | 98 | 1015.8 |
| 20260905034521 | 72 | 341 | 0.0 | 0.0 | 0.00 | 0.00 | 0.00 | 97 | 1015.9 |
| 20260905034021 | 72 | 341 | 0.0 | 0.0 | 0.00 | 0.00 | 0.00 | 97 | 1015.5 |
| 20260905033515 | 72 | 341 | 0.0 | 0.0 | 0.00 | 0.00 | 0.00 | 97 | 1015.7 |
| 20260905033011 | 72 | 341 | 0.0 | 0.0 | 0.00 | 0.00 | 0.00 | 97 | 1015.5 |
| 20260905032505 | 72 | 341 | 0.0 | 0.0 | 0.00 | 0.00 | 0.00 | 97 | 1015.6 |
| 20260905032000 | 72 | 341 | 0.0 | 0.0 | 0.00 | 0.00 | 0.00 | 97 | 1015.6 |
| 20260905031456 | 72 | 341 | 0.0 | 0.0 | 0.00 | 0.00 | 0.00 | 97 | 1015.3 |
| 20260905030951 | 72 | 338 | 0.0 | 0.0 | 0.00 | 0.00 | 0.00 | 97 | 1015.2 |
| 20260905030446 | 72 | 346 | 0.0 | 0.0 | 0.00 | 0.00 | 0.00 | 97 | 1015.3 |
| 20260905025945 | 72 | 345 | 0.0 | 0.0 | 0.00 | 0.00 | 0.00 | 96 | 1015.5 |
| 20260905025440 | 72 | 345 | 0.0 | 0.0 | 0.00 | 0.00 | 0.00 | 96 | 1015.5 |
| 20260905024938 | 73 | 345 | 0.0 | 0.0 | 0.00 | 0.00 | 0.00 | 96 | 1015.4 |
| 20260905024437 | 73 | 346 | 0.0 | 0.0 | 0.00 | 0.00 | 0.00 | 96 | 1015.5 |
| 20260905023932 | 72 | 341 | 0.0 | 0.0 | 0.00 | 0.00 | 0.00 | 96 | 1015.5 |
| 20260905023428 | 73 | 341 | 0.0 | 0.0 | 0.00 | 0.00 | 0.00 | 96 | 1015.3 |
| 20260905022927 | 73 | 341 | 0.0 | 0.0 | 0.00 | 0.00 | 0.00 | 96 | 1015.2 |
| 20260905022422 | 73 | 344 | 0.0 | 0.0 | 0.00 | 0.00 | 0.00 | 96 | 1015.4 |
| 20260905021917 | 73 | 344 | 0.0 | 0.0 | 0.00 | 0.00 | 0.00 | 95 | 1015.5 |
| 20260905021412 | 73 | 344 | 0.0 | 0.0 | 0.00 | 0.00 | 0.00 | 95 | 1015.6 |
| 20260905020907 | 73 | 344 | 0.0 | 0.0 | 0.00 | 0.00 | 0.00 | 95 | 1015.5 |
| 20260905020406 | 73 | 344 | 0.0 | 0.0 | 0.00 | 0.00 | 0.00 | 95 | 1015.4 |
| 20260905015906 | 73 | 344 | 0.0 | 0.0 | 0.00 | 0.00 | 0.00 | 94 | 1015.4 |
| 20260905015404 | 73 | 346 | 0.0 | 0.0 | 0.00 | 0.00 | 0.00 | 94 | 1015.5 |
| 20260905014859 | 73 | 347 | 0.0 | 0.0 | 0.00 | 0.00 | 0.00 | 95 | 1015.5 |
| 20260905014354 | 73 | 344 | 0.0 | 0.0 | 0.00 | 0.00 | 0.00 | 95 | 1015.4 |
| 20260905013849 | 74 | 336 | 0.0 | 0.0 | 0.00 | 0.00 | 0.00 | 94 | 1015.4 |
| 20260905013346 | 74 | 345 | 0.0 | 0.0 | 0.00 | 0.00 | 0.00 | 93 | 1015.2 |
| 20260905012846 | 74 | 345 | 0.0 | 0.0 | 0.00 | 0.00 | 0.00 | 93 | 1015.4 |
| 20260905012341 | 74 | 343 | 0.0 | 0.0 | 0.00 | 0.00 | 0.00 | 93 | 1015.1 |
| 20260905011838 | 74 | 343 | 0.0 | 0.0 | 0.00 | 0.00 | 0.00 | 93 | 1015.1 |
| 20260905011333 | 74 | 340 | 0.0 | 0.0 | 0.00 | 0.00 | 0.00 | 92 | 1015.1 |
| 20260905010829 | 75 | 340 | 0.0 | 0.0 | 0.00 | 0.00 | 0.00 | 92 | 1015.1 |
| 20260905010323 | 75 | 338 | 0.0 | 0.0 | 0.00 | 0.00 | 0.00 | 91 | 1015.2 |
| 20260905005820 | 75 | 344 | 0.0 | 0.0 | 0.00 | 0.00 | 0.00 | 91 | 1015.3 |
| 20260905005316 | 75 | 345 | 0.0 | 0.0 | 0.00 | 0.00 | 0.00 | 90 | 1015.0 |
| 20260905004816 | 75 | 344 | 0.0 | 0.0 | 0.00 | 0.00 | 0.00 | 90 | 1015.1 |
| 20260905004310 | 76 | 345 | 0.0 | 0.0 | 0.00 | 0.00 | 0.00 | 89 | 1015.2 |
| 20260905003806 | 76 | 343 | 0.0 | 0.0 | 0.00 | 0.00 | 0.00 | 87 | 1015.1 |
| 20260905003302 | 76 | 345 | 0.0 | 0.0 | 0.00 | 0.00 | 0.00 | 86 | 1015.0 |
| 20260905002757 | 77 | 346 | 0.0 | 0.0 | 0.00 | 0.00 | 0.00 | 85 | 1015.0 |
| 20260905002257 | 77 | 346 | 0.0 | 0.0 | 0.00 | 0.00 | 0.00 | 85 | 1014.9 |
| 20260905001752 | 77 | 348 | 0.0 | 0.0 | 0.00 | 0.00 | 0.00 | 84 | 1014.9 |
| 20260905001251 | 78 | 347 | 0.0 | 0.0 | 0.00 | 0.00 | 0.00 | 83 | 1014.9 |
| 20260905000747 | 78 | 346 | 0.0 | 0.0 | 0.00 | 0.00 | 0.00 | 83 | 1015.0 |
| 20260905000243 | 79 | 345 | 0.0 | 0.0 | 0.00 | 0.00 | 0.00 | 83 | 1015.0 |
| 20260904235737 | 79 | 336 | 0.0 | 0.0 | 0.00 | 0.00 | 0.00 | 81 | 1015.0 |
| 20260904235232 | 80 | 342 | 0.0 | 0.0 | 0.00 | 0.00 | 0.00 | 78 | 1015.1 |
| 20260904234726 | 80 | 337 | 0.0 | 0.0 | 0.00 | 0.00 | 0.00 | 77 | 1014.9 |
| 20260904234222 | 81 | 344 | 0.0 | 0.0 | 0.00 | 0.00 | 0.00 | 75 | 1014.7 |
| 20260904233718 | 81 | 339 | 1.0 | 1.0 | 0.00 | 0.00 | 0.00 | 75 | 1014.9 |
| 20260904233214 | 82 | 343 | 0.0 | 1.0 | 0.00 | 0.00 | 0.00 | 75 | 1014.8 |
| 20260904232710 | 82 | 0 | 1.0 | 2.0 | 0.00 | 0.00 | 0.00 | 74 | 1014.5 |
| 20260904232206 | 83 | 329 | 0.0 | 0.0 | 0.00 | 0.00 | 0.00 | 73 | 1014.7 |
| 20260904231701 | 83 | 348 | 0.0 | 0.0 | 0.00 | 0.00 | 0.00 | 72 | 1014.6 |
| 20260904231157 | 84 | 0 | 1.0 | 2.0 | 0.00 | 0.00 | 0.00 | 72 | 1014.6 |
| 20260904230656 | 84 | 346 | 1.0 | 1.0 | 0.00 | 0.00 | 0.00 | 70 | 1014.6 |
| 20260904230151 | 85 | 18 | 0.0 | 0.0 | 0.00 | 0.00 | 0.00 | 70 | 1014.6 |
| 20260904225649 | 86 | 341 | 0.0 | 0.0 | 0.00 | 0.00 | 0.00 | 66 | 1014.6 |
| 20260904225144 | 84 | 2 | 0.0 | 0.0 | 0.00 | 0.00 | 0.00 | 70 | 1014.4 |
| 20260904224639 | 85 | 358 | 1.0 | 2.0 | 0.00 | 0.00 | 0.00 | 68 | 1014.6 |
| 20260904224133 | 85 | 356 | 0.0 | 0.0 | 0.00 | 0.00 | 0.00 | 68 | 1014.5 |
| 20260904223633 | 86 | 342 | 0.0 | 1.0 | 0.00 | 0.00 | 0.00 | 66 | 1014.6 |
| 20260904223128 | 86 | 326 | 0.0 | 0.0 | 0.00 | 0.00 | 0.00 | 65 | 1014.9 |
| 20260904222624 | 85 | 351 | 1.0 | 1.0 | 0.00 | 0.00 | 0.00 | 67 | 1014.7 |
| 20260904222120 | 86 | 296 | 2.0 | 2.0 | 0.00 | 0.00 | 0.00 | 65 | 1014.9 |
| 20260904221619 | 84 | 340 | 0.0 | 0.0 | 0.00 | 0.00 | 0.00 | 65 | 1015.1 |
| 20260904221119 | 83 | 359 | 3.0 | 3.0 | 0.00 | 0.00 | 0.00 | 69 | 1015.2 |
| 20260904220614 | 83 | 333 | 4.0 | 6.0 | 0.00 | 0.00 | 0.00 | 69 | 1015.7 |
| 20260904220109 | 82 | 7 | 7.0 | 9.0 | 0.00 | 0.00 | 0.00 | 70 | 1016.5 |
| 20260904215603 | 82 | 328 | 6.0 | 8.0 | 0.00 | 0.00 | 0.00 | 72 | 1016.7 |
| 20260904215059 | 85 | 35 | 7.0 | 8.0 | 0.00 | 0.00 | 0.00 | 67 | 1016.8 |
| 20260904214554 | 86 | 340 | 9.0 | 11.0 | 0.00 | 0.00 | 0.00 | 66 | 1017.2 |
| 20260904214050 | 87 | 355 | 9.0 | 10.0 | 0.00 | 0.00 | 0.00 | 63 | 1016.8 |
| 20260904213548 | 89 | 11 | 12.0 | 13.0 | 0.00 | 0.00 | 0.00 | 61 | 1016.0 |
| 20260904213045 | 95 | 19 | 11.0 | 14.0 | 0.00 | 0.00 | 0.00 | 56 | 1015.6 |
| 20260904212544 | 95 | 358 | 4.0 | 5.0 | 0.00 | 0.00 | 0.00 | 53 | 1015.5 |
| 20260904212039 | 95 | 3 | 3.0 | 5.0 | 0.00 | 0.00 | 0.00 | 51 | 1015.2 |
| 20260904211534 | 96 | 23 | 3.0 | 3.0 | 0.00 | 0.00 | 0.00 | 50 | 1015.0 |
| 20260904211030 | 97 | 339 | 4.0 | 6.0 | 0.00 | 0.00 | 0.00 | 49 | 1014.9 |
| 20260904210529 | 96 | 340 | 5.0 | 6.0 | 0.00 | 0.00 | 0.00 | 50 | 1014.8 |
| 20260904210025 | 97 | 6 | 2.0 | 2.0 | 0.00 | 0.00 | 0.00 | 50 | 1015.0 |
| 20260904205520 | 97 | 343 | 5.0 | 9.0 | 0.00 | 0.00 | 0.00 | 50 | 1015.0 |
| 20260904205017 | 96 | 326 | 1.0 | 1.0 | 0.00 | 0.00 | 0.00 | 51 | 1015.0 |
| 20260904204512 | 96 | 351 | 2.0 | 2.0 | 0.00 | 0.00 | 0.00 | 52 | 1015.0 |
| 20260904204008 | 96 | 340 | 0.0 | 0.0 | 0.00 | 0.00 | 0.00 | 53 | 1014.9 |
| 20260904203504 | 96 | 349 | 0.0 | 0.0 | 0.00 | 0.00 | 0.00 | 52 | 1014.9 |
| 20260904203000 | 97 | 329 | 2.0 | 5.0 | 0.00 | 0.00 | 0.00 | 51 | 1015.2 |
| 20260904202456 | 97 | 343 | 4.0 | 5.0 | 0.00 | 0.00 | 0.00 | 49 | 1015.0 |
| 20260904201951 | 97 | 359 | 4.0 | 5.0 | 0.00 | 0.00 | 0.00 | 50 | 1015.3 |
| 20260904201446 | 97 | 327 | 0.0 | 0.0 | 0.00 | 0.00 | 0.00 | 50 | 1015.3 |
| 20260904200942 | 97 | 336 | 4.0 | 6.0 | 0.00 | 0.00 | 0.00 | 49 | 1015.2 |
| 20260904200440 | 98 | 2 | 7.0 | 9.0 | 0.00 | 0.00 | 0.00 | 49 | 1015.2 |
| 20260904195935 | 99 | 345 | 2.0 | 5.0 | 0.00 | 0.00 | 0.00 | 48 | 1015.3 |
| 20260904195433 | 98 | 307 | 0.0 | 1.0 | 0.00 | 0.00 | 0.00 | 47 | 1015.5 |
| 20260904194927 | 97 | 328 | 2.0 | 3.0 | 0.00 | 0.00 | 0.00 | 51 | 1015.3 |
| 20260904194427 | 98 | 345 | 9.0 | 11.0 | 0.00 | 0.00 | 0.00 | 49 | 1015.3 |
| 20260904193922 | 98 | 338 | 3.0 | 3.0 | 0.00 | 0.00 | 0.00 | 49 | 1015.4 |
| 20260904193418 | 98 | 333 | 5.0 | 7.0 | 0.00 | 0.00 | 0.00 | 50 | 1015.4 |
| 20260904192913 | 97 | 332 | 3.0 | 6.0 | 0.00 | 0.00 | 0.00 | 49 | 1015.2 |
| 20260904192408 | 96 | 345 | 0.0 | 0.0 | 0.00 | 0.00 | 0.00 | 51 | 1015.7 |
| 20260904191904 | 97 | 24 | 5.0 | 7.0 | 0.00 | 0.00 | 0.00 | 51 | 1015.5 |
| 20260904191401 | 98 | 18 | 2.0 | 3.0 | 0.00 | 0.00 | 0.00 | 51 | 1015.7 |
| 20260904190857 | 96 | 5 | 1.0 | 1.0 | 0.00 | 0.00 | 0.00 | 51 | 1015.9 |
| 20260904190352 | 98 | 335 | 5.0 | 5.0 | 0.00 | 0.00 | 0.00 | 50 | 1015.9 |
| 20260904185849 | 98 | 290 | 2.0 | 3.0 | 0.00 | 0.00 | 0.00 | 49 | 1015.9 |
| 20260904185344 | 98 | 324 | 2.0 | 3.0 | 0.00 | 0.00 | 0.00 | 49 | 1016.1 |
| 20260904184844 | 98 | 262 | 4.0 | 5.0 | 0.00 | 0.00 | 0.00 | 47 | 1015.8 |
| 20260904184339 | 97 | 342 | 2.0 | 2.0 | 0.00 | 0.00 | 0.00 | 50 | 1016.1 |
| 20260904183834 | 97 | 325 | 2.0 | 3.0 | 0.00 | 0.00 | 0.00 | 52 | 1016.0 |
| 20260904183329 | 98 | 0 | 0.0 | 1.0 | 0.00 | 0.00 | 0.00 | 52 | 1016.1 |
| 20260904182825 | 96 | 13 | 3.0 | 3.0 | 0.00 | 0.00 | 0.00 | 51 | 1016.2 |
| 20260904182325 | 98 | 339 | 6.0 | 8.0 | 0.00 | 0.00 | 0.00 | 50 | 1016.2 |
| 20260904181820 | 96 | 313 | 6.0 | 7.0 | 0.00 | 0.00 | 0.00 | 52 | 1016.2 |
| 20260904181320 | 96 | 6 | 11.0 | 11.0 | 0.00 | 0.00 | 0.00 | 51 | 1016.4 |
| 20260904180816 | 95 | 9 | 4.0 | 5.0 | 0.00 | 0.00 | 0.00 | 55 | 1016.3 |
| 20260904180311 | 96 | 16 | 8.0 | 9.0 | 0.00 | 0.00 | 0.00 | 53 | 1016.5 |
| 20260904175810 | 96 | 15 | 9.0 | 13.0 | 0.00 | 0.00 | 0.00 | 51 | 1016.8 |
| 20260904175309 | 96 | 320 | 2.0 | 5.0 | 0.00 | 0.00 | 0.00 | 52 | 1016.8 |
| 20260904174809 | 97 | 338 | 7.0 | 8.0 | 0.00 | 0.00 | 0.00 | 52 | 1016.9 |
| 20260904174305 | 97 | 347 | 3.0 | 3.0 | 0.00 | 0.00 | 0.00 | 52 | 1017.1 |
| 20260904173800 | 96 | 337 | 3.0 | 5.0 | 0.00 | 0.00 | 0.00 | 53 | 1016.9 |
| 20260904173255 | 95 | 6 | 3.0 | 5.0 | 0.00 | 0.00 | 0.00 | 54 | 1017.2 |
| 20260904172752 | 96 | 334 | 5.0 | 7.0 | 0.00 | 0.00 | 0.00 | 54 | 1017.1 |
| 20260904172250 | 96 | 343 | 5.0 | 7.0 | 0.00 | 0.00 | 0.00 | 55 | 1017.1 |
| 20260904171746 | 95 | 357 | 3.0 | 5.0 | 0.00 | 0.00 | 0.00 | 54 | 1017.2 |
| 20260904171241 | 95 | 359 | 2.0 | 2.0 | 0.00 | 0.00 | 0.00 | 54 | 1017.3 |
| 20260904170737 | 95 | 342 | 6.0 | 7.0 | 0.00 | 0.00 | 0.00 | 55 | 1017.0 |
| 20260904170233 | 94 | 340 | 1.0 | 2.0 | 0.00 | 0.00 | 0.00 | 56 | 1017.1 |
| 20260904165732 | 93 | 331 | 0.0 | 1.0 | 0.00 | 0.00 | 0.00 | 57 | 1017.4 |
| 20260904165226 | 94 | 323 | 4.0 | 6.0 | 0.00 | 0.00 | 0.00 | 56 | 1017.4 |
| 20260904164720 | 96 | 347 | 2.0 | 2.0 | 0.00 | 0.00 | 0.00 | 53 | 1017.3 |
| 20260904164215 | 96 | 347 | 2.0 | 3.0 | 0.00 | 0.00 | 0.00 | 55 | 1017.3 |
| 20260904163712 | 96 | 328 | 2.0 | 2.0 | 0.00 | 0.00 | 0.00 | 53 | 1017.3 |
| 20260904163207 | 97 | 341 | 1.0 | 2.0 | 0.00 | 0.00 | 0.00 | 53 | 1017.3 |
| 20260904162706 | 97 | 0 | 0.0 | 1.0 | 0.00 | 0.00 | 0.00 | 52 | 1017.2 |
| 20260904162201 | 95 | 1 | 2.0 | 3.0 | 0.00 | 0.00 | 0.00 | 54 | 1017.3 |
| 20260904161656 | 95 | 297 | 5.0 | 6.0 | 0.00 | 0.00 | 0.00 | 54 | 1017.6 |
| 20260904161151 | 95 | 333 | 3.0 | 6.0 | 0.00 | 0.00 | 0.00 | 55 | 1017.2 |
| 20260904160647 | 96 | 346 | 3.0 | 5.0 | 0.00 | 0.00 | 0.00 | 54 | 1017.3 |
| 20260904160142 | 96 | 298 | 0.0 | 1.0 | 0.00 | 0.00 | 0.00 | 55 | 1017.4 |
| 20260904155637 | 96 | 343 | 0.0 | 0.0 | 0.00 | 0.00 | 0.00 | 55 | 1017.4 |
| 20260904155131 | 95 | 349 | 0.0 | 0.0 | 0.00 | 0.00 | 0.00 | 57 | 1017.4 |
| 20260904154630 | 94 | 309 | 7.0 | 9.0 | 0.00 | 0.00 | 0.00 | 57 | 1017.4 |
| 20260904154125 | 95 | 347 | 1.0 | 2.0 | 0.00 | 0.00 | 0.00 | 57 | 1017.4 |
| 20260904153620 | 94 | 353 | 3.0 | 3.0 | 0.00 | 0.00 | 0.00 | 58 | 1017.4 |
| 20260904153116 | 94 | 341 | 5.0 | 7.0 | 0.00 | 0.00 | 0.00 | 58 | 1017.3 |
| 20260904152612 | 94 | 12 | 3.0 | 5.0 | 0.00 | 0.00 | 0.00 | 58 | 1017.4 |
| 20260904152107 | 92 | 335 | 2.0 | 2.0 | 0.00 | 0.00 | 0.00 | 63 | 1017.2 |
| 20260904151602 | 93 | 357 | 3.0 | 5.0 | 0.00 | 0.00 | 0.00 | 61 | 1017.6 |
| 20260904151101 | 92 | 308 | 0.0 | 0.0 | 0.00 | 0.00 | 0.00 | 63 | 1017.6 |
| 20260904150556 | 94 | 12 | 6.0 | 6.0 | 0.00 | 0.00 | 0.00 | 62 | 1017.6 |
| 20260904150055 | 94 | 314 | 0.0 | 0.0 | 0.00 | 0.00 | 0.00 | 61 | 1017.4 |
| 20260904145555 | 95 | 345 | 0.0 | 0.0 | 0.00 | 0.00 | 0.00 | 60 | 1017.4 |
| 20260904145050 | 93 | 326 | 1.0 | 2.0 | 0.00 | 0.00 | 0.00 | 61 | 1017.2 |
| 20260904144546 | 93 | 310 | 0.0 | 0.0 | 0.00 | 0.00 | 0.00 | 63 | 1017.2 |
| 20260904144042 | 92 | 325 | 0.0 | 1.0 | 0.00 | 0.00 | 0.00 | 65 | 1017.3 |
| 20260904143537 | 92 | 343 | 0.0 | 0.0 | 0.00 | 0.00 | 0.00 | 67 | 1017.3 |
| 20260904143034 | 90 | 342 | 0.0 | 0.0 | 0.00 | 0.00 | 0.00 | 68 | 1017.3 |
| 20260904142530 | 90 | 326 | 0.0 | 1.0 | 0.00 | 0.00 | 0.00 | 68 | 1017.3 |
| 20260904142025 | 91 | 271 | 2.0 | 3.0 | 0.00 | 0.00 | 0.00 | 68 | 1017.3 |
| 20260904141520 | 91 | 341 | 0.0 | 0.0 | 0.00 | 0.00 | 0.00 | 71 | 1017.4 |
| 20260904141016 | 89 | 344 | 1.0 | 2.0 | 0.00 | 0.00 | 0.00 | 70 | 1017.2 |
| 20260904140511 | 87 | 328 | 1.0 | 2.0 | 0.00 | 0.00 | 0.00 | 74 | 1017.3 |
| 20260904140010 | 87 | 296 | 2.0 | 2.0 | 0.00 | 0.00 | 0.00 | 75 | 1017.1 |
| 20260904135504 | 86 | 339 | 0.0 | 0.0 | 0.00 | 0.00 | 0.00 | 77 | 1017.3 |
| 20260904135001 | 86 | 24 | 0.0 | 1.0 | 0.00 | 0.00 | 0.00 | 78 | 1017.4 |
| 20260904134501 | 86 | 337 | 0.0 | 0.0 | 0.00 | 0.00 | 0.00 | 81 | 1017.4 |
| 20260904133954 | 85 | 357 | 0.0 | 0.0 | 0.00 | 0.00 | 0.00 | 79 | 1017.7 |
| 20260904133449 | 85 | 332 | 0.0 | 0.0 | 0.00 | 0.00 | 0.00 | 81 | 1017.6 |
| 20260904132945 | 84 | 346 | 0.0 | 0.0 | 0.00 | 0.00 | 0.00 | 80 | 1017.2 |
| 20260904132440 | 84 | 354 | 0.0 | 0.0 | 0.00 | 0.00 | 0.00 | 80 | 1017.7 |
| 20260904131940 | 85 | 339 | 0.0 | 0.0 | 0.00 | 0.00 | 0.00 | 81 | 1017.4 |
| 20260904131435 | 83 | 349 | 0.0 | 0.0 | 0.00 | 0.00 | 0.00 | 83 | 1017.7 |
| 20260904130931 | 83 | 339 | 0.0 | 0.0 | 0.00 | 0.00 | 0.00 | 84 | 1017.6 |
| 20260904130429 | 82 | 354 | 0.0 | 0.0 | 0.00 | 0.00 | 0.00 | 86 | 1017.9 |
| 20260904125924 | 81 | 351 | 0.0 | 0.0 | 0.00 | 0.00 | 0.00 | 89 | 1017.9 |
| 20260904125421 | 79 | 351 | 0.0 | 0.0 | 0.00 | 0.00 | 0.00 | 92 | 1017.8 |
| 20260904124920 | 78 | 350 | 0.0 | 0.0 | 0.00 | 0.00 | 0.00 | 95 | 1017.7 |
| 20260904124417 | 77 | 351 | 0.0 | 0.0 | 0.00 | 0.00 | 0.00 | 98 | 1017.6 |
| 20260904123907 | 76 | 348 | 0.0 | 0.0 | 0.00 | 0.00 | 0.00 | 99 | 1017.4 |
| 20260904123406 | 75 | 353 | 0.0 | 0.0 | 0.00 | 0.00 | 0.00 | 99 | 1017.4 |
| 20260904122903 | 74 | 348 | 0.0 | 0.0 | 0.00 | 0.00 | 0.00 | 99 | 1017.6 |
| 20260904122401 | 74 | 343 | 0.0 | 0.0 | 0.00 | 0.00 | 0.00 | 99 | 1017.1 |
| 20260904121856 | 74 | 346 | 0.0 | 0.0 | 0.00 | 0.00 | 0.00 | 99 | 1017.4 |
| 20260904121353 | 74 | 346 | 0.0 | 0.0 | 0.00 | 0.00 | 0.00 | 99 | 1017.1 |
| 20260904120849 | 73 | 346 | 0.0 | 0.0 | 0.00 | 0.00 | 0.00 | 99 | 1017.2 |
| 20260904120345 | 73 | 346 | 0.0 | 0.0 | 0.00 | 0.00 | 0.00 | 99 | 1017.1 |
| 20260904115840 | 73 | 347 | 0.0 | 0.0 | 0.00 | 0.00 | 0.00 | 99 | 1017.0 |
| 20260904115335 | 72 | 346 | 0.0 | 0.0 | 0.00 | 0.00 | 0.00 | 99 | 1016.9 |
| 20260904114835 | 71 | 346 | 0.0 | 0.0 | 0.00 | 0.00 | 0.00 | 99 | 1017.0 |
| 20260904114329 | 71 | 346 | 0.0 | 0.0 | 0.00 | 0.00 | 0.00 | 99 | 1017.0 |
| 20260904113825 | 71 | 346 | 0.0 | 0.0 | 0.00 | 0.00 | 0.00 | 99 | 1016.9 |
| 20260904113324 | 71 | 347 | 0.0 | 0.0 | 0.00 | 0.00 | 0.00 | 99 | 1016.8 |
| 20260904112819 | 71 | 345 | 0.0 | 0.0 | 0.00 | 0.00 | 0.00 | 99 | 1016.9 |
| 20260904112314 | 71 | 344 | 0.0 | 0.0 | 0.00 | 0.00 | 0.00 | 99 | 1016.7 |
| 20260904111810 | 71 | 347 | 0.0 | 0.0 | 0.00 | 0.00 | 0.00 | 99 | 1016.8 |
| 20260904111306 | 71 | 344 | 0.0 | 0.0 | 0.00 | 0.00 | 0.00 | 99 | 1016.7 |
| 20260904110801 | 71 | 347 | 0.0 | 0.0 | 0.00 | 0.00 | 0.00 | 99 | 1016.3 |
| 20260904110300 | 71 | 346 | 0.0 | 0.0 | 0.00 | 0.00 | 0.00 | 99 | 1016.6 |
| 20260904105755 | 71 | 341 | 0.0 | 0.0 | 0.00 | 0.00 | 0.00 | 99 | 1016.7 |
| 20260904105250 | 71 | 346 | 0.0 | 0.0 | 0.00 | 0.00 | 0.00 | 99 | 1016.5 |
| 20260904104745 | 71 | 346 | 0.0 | 0.0 | 0.00 | 0.00 | 0.00 | 99 | 1016.4 |
| 20260904104240 | 72 | 344 | 0.0 | 0.0 | 0.00 | 0.00 | 0.00 | 99 | 1016.5 |
| 20260904103738 | 72 | 349 | 0.0 | 0.0 | 0.00 | 0.00 | 0.00 | 99 | 1016.6 |
| 20260904103232 | 71 | 349 | 0.0 | 0.0 | 0.00 | 0.00 | 0.00 | 99 | 1016.4 |
| 20260904102727 | 71 | 345 | 0.0 | 0.0 | 0.00 | 0.00 | 0.00 | 99 | 1016.5 |
| 20260904102223 | 71 | 339 | 0.0 | 0.0 | 0.00 | 0.00 | 0.00 | 99 | 1016.5 |
| 20260904101714 | 71 | 343 | 0.0 | 0.0 | 0.00 | 0.00 | 0.00 | 99 | 1016.4 |
| 20260904101210 | 72 | 343 | 0.0 | 0.0 | 0.00 | 0.00 | 0.00 | 99 | 1016.5 |
| 20260904100705 | 72 | 346 | 0.0 | 0.0 | 0.00 | 0.00 | 0.00 | 99 | 1016.4 |
| 20260904100201 | 71 | 346 | 0.0 | 0.0 | 0.00 | 0.00 | 0.00 | 99 | 1016.4 |
| 20260904095700 | 72 | 344 | 0.0 | 0.0 | 0.00 | 0.00 | 0.00 | 99 | 1016.3 |
| 20260904095155 | 72 | 355 | 0.0 | 0.0 | 0.00 | 0.00 | 0.00 | 99 | 1016.4 |
| 20260904094650 | 72 | 346 | 0.0 | 0.0 | 0.00 | 0.00 | 0.00 | 99 | 1016.5 |
| 20260904094144 | 72 | 344 | 0.0 | 0.0 | 0.00 | 0.00 | 0.00 | 99 | 1016.4 |
| 20260904093642 | 72 | 343 | 0.0 | 0.0 | 0.00 | 0.00 | 0.00 | 99 | 1016.3 |
| 20260904093141 | 72 | 344 | 0.0 | 0.0 | 0.00 | 0.00 | 0.00 | 99 | 1016.3 |
| 20260904092637 | 72 | 346 | 0.0 | 0.0 | 0.00 | 0.00 | 0.00 | 99 | 1016.4 |
| 20260904092133 | 72 | 345 | 0.0 | 0.0 | 0.00 | 0.00 | 0.00 | 99 | 1016.2 |
| 20260904091629 | 72 | 347 | 0.0 | 0.0 | 0.00 | 0.00 | 0.00 | 99 | 1016.3 |
| 20260904091129 | 72 | 340 | 0.0 | 0.0 | 0.00 | 0.00 | 0.00 | 99 | 1016.2 |
| 20260904090625 | 72 | 343 | 0.0 | 0.0 | 0.00 | 0.00 | 0.00 | 99 | 1016.4 |
| 20260904090120 | 72 | 345 | 0.0 | 0.0 | 0.00 | 0.00 | 0.00 | 99 | 1016.5 |
| 20260904085620 | 72 | 345 | 0.0 | 0.0 | 0.00 | 0.00 | 0.00 | 99 | 1016.3 |
| 20260904085120 | 71 | 345 | 0.0 | 0.0 | 0.00 | 0.00 | 0.00 | 99 | 1016.3 |
| 20260904084615 | 71 | 345 | 0.0 | 0.0 | 0.00 | 0.00 | 0.00 | 99 | 1016.2 |
| 20260904084112 | 71 | 345 | 0.0 | 0.0 | 0.00 | 0.00 | 0.00 | 99 | 1016.2 |
| 20260904083608 | 71 | 345 | 0.0 | 0.0 | 0.00 | 0.00 | 0.00 | 99 | 1016.2 |
| 20260904083103 | 71 | 344 | 0.0 | 0.0 | 0.00 | 0.00 | 0.00 | 99 | 1016.2 |
| 20260904082558 | 72 | 344 | 0.0 | 0.0 | 0.00 | 0.00 | 0.00 | 99 | 1016.2 |
| 20260904082053 | 73 | 336 | 0.0 | 0.0 | 0.00 | 0.00 | 0.00 | 99 | 1016.4 |
| 20260904081549 | 72 | 346 | 0.0 | 0.0 | 0.00 | 0.00 | 0.00 | 99 | 1016.4 |
| 20260904081044 | 72 | 347 | 0.0 | 0.0 | 0.00 | 0.00 | 0.00 | 99 | 1016.3 |
| 20260904080539 | 72 | 344 | 0.0 | 0.0 | 0.00 | 0.00 | 0.00 | 99 | 1016.2 |
| 20260904080036 | 72 | 344 | 0.0 | 0.0 | 0.00 | 0.00 | 0.00 | 99 | 1016.3 |
| 20260904075532 | 72 | 344 | 0.0 | 0.0 | 0.00 | 0.00 | 0.00 | 99 | 1016.3 |
| 20260904075027 | 72 | 344 | 0.0 | 0.0 | 0.00 | 0.00 | 0.00 | 99 | 1016.3 |
| 20260904074520 | 72 | 344 | 0.0 | 0.0 | 0.00 | 0.00 | 0.00 | 99 | 1016.2 |
| 20260904074020 | 73 | 344 | 0.0 | 0.0 | 0.00 | 0.00 | 0.00 | 99 | 1016.2 |
| 20260904073515 | 73 | 344 | 0.0 | 0.0 | 0.00 | 0.00 | 0.00 | 99 | 1016.3 |
| 20260904073012 | 72 | 342 | 0.0 | 0.0 | 0.00 | 0.00 | 0.00 | 99 | 1016.4 |
| 20260904072508 | 72 | 342 | 0.0 | 0.0 | 0.00 | 0.00 | 0.00 | 99 | 1016.5 |
| 20260904072008 | 72 | 342 | 0.0 | 0.0 | 0.00 | 0.00 | 0.00 | 99 | 1016.3 |
| 20260904071503 | 72 | 342 | 0.0 | 0.0 | 0.00 | 0.00 | 0.00 | 99 | 1016.5 |
| 20260904070958 | 72 | 342 | 0.0 | 0.0 | 0.00 | 0.00 | 0.00 | 99 | 1016.3 |
| 20260904070456 | 73 | 341 | 0.0 | 0.0 | 0.00 | 0.00 | 0.00 | 99 | 1016.4 |
| 20260904065951 | 73 | 341 | 0.0 | 0.0 | 0.00 | 0.00 | 0.00 | 99 | 1016.5 |
| 20260904065447 | 73 | 347 | 0.0 | 0.0 | 0.00 | 0.00 | 0.00 | 99 | 1016.4 |
| 20260904064943 | 73 | 344 | 0.0 | 0.0 | 0.00 | 0.00 | 0.00 | 99 | 1016.5 |
| 20260904064439 | 73 | 344 | 0.0 | 0.0 | 0.00 | 0.00 | 0.00 | 99 | 1016.5 |
| 20260904063939 | 73 | 337 | 0.0 | 0.0 | 0.00 | 0.00 | 0.00 | 99 | 1016.5 |
| 20260904063436 | 73 | 344 | 0.0 | 0.0 | 0.00 | 0.00 | 0.00 | 99 | 1016.5 |
| 20260904062930 | 73 | 348 | 0.0 | 0.0 | 0.00 | 0.00 | 0.00 | 99 | 1016.7 |